Time,TemperatureF,DewpointF,PressureIn,WindDirection,WindDirectionDegrees,WindSpeedMPH,WindSpeedGustMPH,Humidity,HourlyPrecipIn,Conditions,Clouds,dailyrainin,SoftwareType,DateUTC
2015-09-03 00:03:00,58.3,46.6,29.80,ENE,64,0.0,1.0,65,0.00,,,0.00,meteobridge,2015-09-03 07:03:00,
2015-09-03 00:09:00,58.3,46.6,29.79,ENE,64,0.0,1.0,65,0.00,,,0.00,meteobridge,2015-09-03 07:09:00,
2015-09-03 00:14:00,57.9,46.2,29.79,ENE,64,0.0,1.0,65,0.00,,,0.00,meteobridge,2015-09-03 07:14:00,
2015-09-03 00:19:00,57.9,46.2,29.79,ENE,64,0.0,0.0,65,0.00,,,0.00,meteobridge,2015-09-03 07:19:00,
2015-09-03 00:24:00,57.9,46.2,29.79,ENE,64,0.0,0.0,65,0.00,,,0.00,meteobridge,2015-09-03 07:24:00,
2015-09-03 00:29:00,57.9,46.2,29.79,ENE,65,0.0,1.0,65,0.00,,,0.00,meteobridge,2015-09-03 07:29:00,
2015-09-03 00:34:00,57.7,46.0,29.80,ENE,65,0.0,1.0,65,0.00,,,0.00,meteobridge,2015-09-03 07:34:00,
2015-09-03 00:39:00,57.7,46.0,29.80,ENE,65,0.0,0.0,65,0.00,,,0.00,meteobridge,2015-09-03 07:39:00,
2015-09-03 00:45:00,57.6,45.9,29.80,ENE,64,0.0,1.0,65,0.00,,,0.00,meteobridge,2015-09-03 07:45:00,
2015-09-03 00:50:00,57.6,45.9,29.80,ENE,65,0.0,1.0,65,0.00,,,0.00,meteobridge,2015-09-03 07:50:00,
2015-09-03 00:55:00,57.4,46.0,29.80,ENE,65,0.0,1.0,66,0.00,,,0.00,meteobridge,2015-09-03 07:55:00,
2015-09-03 01:00:00,57.0,45.9,29.80,ENE,65,0.0,0.0,66,0.00,,,0.00,meteobridge,2015-09-03 08:00:00,
2015-09-03 01:05:00,56.8,45.7,29.80,East,79,0.9,1.0,66,0.00,,,0.00,meteobridge,2015-09-03 08:05:00,
2015-09-03 01:10:00,56.7,45.9,29.79,East,82,0.0,1.0,67,0.00,,,0.00,meteobridge,2015-09-03 08:10:00,
2015-09-03 01:15:00,56.5,45.7,29.79,East,82,0.0,1.0,67,0.00,,,0.00,meteobridge,2015-09-03 08:15:00,
2015-09-03 01:20:00,56.5,45.7,29.79,SSE,157,0.0,0.0,67,0.00,,,0.00,meteobridge,2015-09-03 08:20:00,
2015-09-03 01:26:00,56.5,45.7,29.79,SSE,157,0.0,0.0,67,0.00,,,0.00,meteobridge,2015-09-03 08:26:00,
2015-09-03 01:31:00,56.7,45.9,29.79,SSE,157,0.0,0.0,67,0.00,,,0.00,meteobridge,2015-09-03 08:31:00,
2015-09-03 01:36:00,56.8,45.7,29.79,SSE,157,0.0,0.0,66,0.00,,,0.00,meteobridge,2015-09-03 08:36:00,
2015-09-03 01:41:00,57.0,45.9,29.79,SSE,157,0.0,0.0,66,0.00,,,0.00,meteobridge,2015-09-03 08:41:00,
2015-09-03 01:47:00,57.2,45.9,29.79,SSE,157,0.0,0.0,66,0.00,,,0.00,meteobridge,2015-09-03 08:47:00,
2015-09-03 01:52:00,57.4,45.7,29.79,SSE,157,0.0,0.0,65,0.00,,,0.00,meteobridge,2015-09-03 08:52:00,
2015-09-03 01:57:00,57.4,45.7,29.79,SSE,157,0.0,0.0,65,0.00,,,0.00,meteobridge,2015-09-03 08:57:00,
2015-09-03 02:02:00,57.6,45.9,29.78,SSE,157,0.0,0.0,65,0.00,,,0.00,meteobridge,2015-09-03 09:02:00,
2015-09-03 02:07:00,57.4,45.7,29.78,SSE,157,0.0,0.0,65,0.00,,,0.00,meteobridge,2015-09-03 09:07:00,
2015-09-03 02:13:00,57.4,45.7,29.79,SSE,157,0.0,0.0,65,0.00,,,0.00,meteobridge,2015-09-03 09:13:00,
2015-09-03 02:18:00,57.2,45.5,29.78,SSE,157,0.0,0.0,65,0.00,,,0.00,meteobridge,2015-09-03 09:18:00,
2015-09-03 02:23:00,57.0,45.3,29.78,SSE,157,0.0,0.0,65,0.00,,,0.00,meteobridge,2015-09-03 09:23:00,
2015-09-03 02:29:00,57.0,45.9,29.78,SSE,157,0.0,0.0,66,0.00,,,0.00,meteobridge,2015-09-03 09:29:00,
2015-09-03 02:34:00,57.0,45.9,29.78,SSE,157,0.0,0.0,66,0.00,,,0.00,meteobridge,2015-09-03 09:34:00,
2015-09-03 02:39:00,57.0,45.3,29.78,SSE,157,0.0,0.0,65,0.00,,,0.00,meteobridge,2015-09-03 09:39:00,
2015-09-03 02:44:00,57.0,45.3,29.78,SSE,157,0.0,0.0,65,0.00,,,0.00,meteobridge,2015-09-03 09:44:00,
2015-09-03 02:49:00,57.2,45.5,29.78,SSE,157,0.0,0.0,65,0.00,,,0.00,meteobridge,2015-09-03 09:49:00,
2015-09-03 02:54:00,57.4,45.7,29.78,SSE,156,0.0,0.0,65,0.00,,,0.00,meteobridge,2015-09-03 09:54:00,
2015-09-03 02:59:00,57.4,45.7,29.78,SSE,156,0.0,1.0,65,0.00,,,0.00,meteobridge,2015-09-03 09:59:00,
2015-09-03 03:04:00,57.6,45.9,29.78,SSE,154,0.0,0.0,65,0.00,,,0.00,meteobridge,2015-09-03 10:04:00,
2015-09-03 03:09:00,57.6,45.9,29.78,SSE,155,0.0,0.0,65,0.00,,,0.00,meteobridge,2015-09-03 10:09:00,
2015-09-03 03:14:00,57.6,45.9,29.78,SSE,155,0.0,0.0,65,0.00,,,0.00,meteobridge,2015-09-03 10:14:00,
2015-09-03 03:20:00,57.6,45.9,29.78,SSE,155,0.0,0.0,65,0.00,,,0.00,meteobridge,2015-09-03 10:20:00,
2015-09-03 03:25:00,57.6,45.9,29.78,SSE,155,0.0,0.0,65,0.00,,,0.00,meteobridge,2015-09-03 10:25:00,
2015-09-03 03:30:00,57.4,46.0,29.78,SSE,155,0.0,0.0,66,0.00,,,0.00,meteobridge,2015-09-03 10:30:00,
2015-09-03 03:35:00,57.4,46.0,29.78,SSE,155,0.0,0.0,66,0.00,,,0.00,meteobridge,2015-09-03 10:35:00,
2015-09-03 03:40:00,57.2,45.9,29.78,SSE,155,0.0,0.0,66,0.00,,,0.00,meteobridge,2015-09-03 10:40:00,
2015-09-03 03:45:00,57.0,45.9,29.78,SSE,155,0.0,0.0,66,0.00,,,0.00,meteobridge,2015-09-03 10:45:00,
2015-09-03 03:50:00,57.0,45.9,29.78,SSE,155,0.0,0.0,66,0.00,,,0.00,meteobridge,2015-09-03 10:50:00,
2015-09-03 03:55:00,57.0,45.9,29.78,SSE,155,0.0,0.0,66,0.00,,,0.00,meteobridge,2015-09-03 10:55:00,
2015-09-03 04:00:00,56.8,45.1,29.78,SSE,155,0.0,0.0,65,0.00,,,0.00,meteobridge,2015-09-03 11:00:00,
2015-09-03 04:05:00,56.8,45.1,29.78,SSE,155,0.0,0.0,65,0.00,,,0.00,meteobridge,2015-09-03 11:05:00,
2015-09-03 04:10:00,56.8,45.1,29.79,SSE,155,0.0,0.0,65,0.00,,,0.00,meteobridge,2015-09-03 11:10:00,
2015-09-03 04:15:00,56.7,45.0,29.78,SSE,155,0.0,0.0,65,0.00,,,0.00,meteobridge,2015-09-03 11:15:00,
2015-09-03 04:20:00,56.7,44.6,29.78,SSE,155,0.0,0.0,64,0.00,,,0.00,meteobridge,2015-09-03 11:20:00,
2015-09-03 04:25:00,56.7,44.6,29.78,SSE,155,0.0,0.0,64,0.00,,,0.00,meteobridge,2015-09-03 11:25:00,
2015-09-03 04:30:00,56.5,44.4,29.78,SSE,155,0.0,0.0,64,0.00,,,0.00,meteobridge,2015-09-03 11:30:00,
2015-09-03 04:36:00,56.3,44.6,29.78,SSE,155,0.0,0.0,65,0.00,,,0.00,meteobridge,2015-09-03 11:36:00,
2015-09-03 04:41:00,56.1,44.6,29.78,SSE,155,0.0,0.0,65,0.00,,,0.00,meteobridge,2015-09-03 11:41:00,
2015-09-03 04:46:00,55.9,44.4,29.78,SSE,151,0.0,1.0,65,0.00,,,0.00,meteobridge,2015-09-03 11:46:00,
2015-09-03 04:51:00,55.8,44.2,29.78,SSE,151,0.0,0.0,65,0.00,,,0.00,meteobridge,2015-09-03 11:51:00,
2015-09-03 04:56:00,55.4,43.9,29.78,SSE,150,0.0,0.0,65,0.00,,,0.00,meteobridge,2015-09-03 11:56:00,
2015-09-03 05:01:00,55.0,43.9,29.78,SE,134,0.0,1.0,66,0.00,,,0.00,meteobridge,2015-09-03 12:01:00,
2015-09-03 05:06:00,55.0,43.9,29.78,SE,134,0.0,0.0,66,0.00,,,0.00,meteobridge,2015-09-03 12:06:00,
2015-09-03 05:11:00,55.0,43.9,29.78,SE,134,0.0,0.0,66,0.00,,,0.00,meteobridge,2015-09-03 12:11:00,
2015-09-03 05:16:00,55.0,43.5,29.78,SE,134,0.0,0.0,65,0.00,,,0.00,meteobridge,2015-09-03 12:16:00,
2015-09-03 05:21:00,55.0,43.5,29.78,SE,134,0.0,0.0,65,0.00,,,0.00,meteobridge,2015-09-03 12:21:00,
2015-09-03 05:26:00,55.0,43.5,29.78,SE,134,0.0,0.0,65,0.00,,,0.00,meteobridge,2015-09-03 12:26:00,
2015-09-03 05:31:00,55.0,43.9,29.78,SE,134,0.0,0.0,66,0.00,,,0.00,meteobridge,2015-09-03 12:31:00,
2015-09-03 05:37:00,55.0,43.9,29.78,SE,134,0.0,1.0,66,0.00,,,0.00,meteobridge,2015-09-03 12:37:00,
2015-09-03 05:42:00,54.9,43.7,29.78,SE,134,0.0,0.0,66,0.00,,,0.00,meteobridge,2015-09-03 12:42:00,
2015-09-03 05:47:00,54.9,43.7,29.78,SE,134,0.0,1.0,66,0.00,,,0.00,meteobridge,2015-09-03 12:47:00,
2015-09-03 05:52:00,54.9,43.7,29.78,SE,134,0.0,0.0,66,0.00,,,0.00,meteobridge,2015-09-03 12:52:00,
2015-09-03 05:57:00,54.7,43.5,29.78,SE,134,0.0,0.0,66,0.00,,,0.00,meteobridge,2015-09-03 12:57:00,
2015-09-03 06:02:00,54.7,43.5,29.78,SE,134,0.0,1.0,66,0.00,,,0.00,meteobridge,2015-09-03 13:02:00,
2015-09-03 06:07:00,54.7,43.9,29.78,SE,134,0.0,0.0,67,0.00,,,0.00,meteobridge,2015-09-03 13:07:00,
2015-09-03 06:12:00,54.7,43.9,29.78,SE,134,0.0,0.0,67,0.00,,,0.00,meteobridge,2015-09-03 13:12:00,
2015-09-03 06:17:00,54.7,44.2,29.78,SE,134,0.0,0.0,68,0.00,,,0.00,meteobridge,2015-09-03 13:17:00,
2015-09-03 06:22:00,54.5,44.2,29.78,SE,134,0.0,1.0,68,0.00,,,0.00,meteobridge,2015-09-03 13:22:00,
2015-09-03 06:28:00,54.3,44.4,29.79,SE,134,0.0,0.0,69,0.00,,,0.00,meteobridge,2015-09-03 13:28:00,
2015-09-03 06:38:00,54.0,44.4,29.80,SE,134,0.0,0.0,70,0.00,,,0.00,meteobridge,2015-09-03 13:38:00,
2015-09-03 06:43:00,53.8,44.2,29.80,SE,134,0.0,0.0,70,0.00,,,0.00,meteobridge,2015-09-03 13:43:00,
2015-09-03 06:48:00,53.8,44.6,29.80,SE,134,0.0,0.0,71,0.00,,,0.00,meteobridge,2015-09-03 13:48:00,
2015-09-03 06:53:00,53.6,44.4,29.80,SE,134,0.0,1.0,71,0.00,,,0.00,meteobridge,2015-09-03 13:53:00,
2015-09-03 06:58:00,53.4,44.2,29.80,SE,134,0.0,1.0,71,0.00,,,0.00,meteobridge,2015-09-03 13:58:00,
2015-09-03 07:03:00,53.4,44.6,29.80,SE,134,0.0,0.0,72,0.00,,,0.00,meteobridge,2015-09-03 14:03:00,
2015-09-03 07:08:00,53.4,44.6,29.80,SE,134,0.0,0.0,72,0.00,,,0.00,meteobridge,2015-09-03 14:08:00,
2015-09-03 07:13:00,53.4,44.6,29.80,SE,134,0.0,0.0,72,0.00,,,0.00,meteobridge,2015-09-03 14:13:00,
2015-09-03 07:18:00,53.4,45.0,29.80,SE,134,0.0,1.0,73,0.00,,,0.00,meteobridge,2015-09-03 14:18:00,
2015-09-03 07:23:00,53.6,45.1,29.80,SE,134,0.0,0.0,73,0.00,,,0.00,meteobridge,2015-09-03 14:23:00,
2015-09-03 07:28:00,53.8,45.3,29.81,SE,134,0.0,0.0,73,0.00,,,0.00,meteobridge,2015-09-03 14:28:00,
2015-09-03 07:33:00,53.8,45.3,29.81,SE,134,0.0,0.0,73,0.00,,,0.00,meteobridge,2015-09-03 14:33:00,
2015-09-03 07:38:00,54.0,45.5,29.81,SE,134,0.0,1.0,73,0.00,,,0.00,meteobridge,2015-09-03 14:38:00,
2015-09-03 07:44:00,54.1,45.3,29.82,SE,134,0.0,0.0,72,0.00,,,0.00,meteobridge,2015-09-03 14:44:00,
2015-09-03 07:49:00,54.1,45.7,29.81,SE,134,0.0,0.0,73,0.00,,,0.00,meteobridge,2015-09-03 14:49:00,
2015-09-03 07:54:00,54.3,45.5,29.82,SE,134,0.0,1.0,72,0.00,,,0.00,meteobridge,2015-09-03 14:54:00,
2015-09-03 07:59:00,54.7,45.9,29.82,SE,139,0.0,1.0,72,0.00,,,0.00,meteobridge,2015-09-03 14:59:00,
2015-09-03 08:04:00,54.9,46.4,29.82,ESE,118,0.0,1.0,73,0.00,,,0.00,meteobridge,2015-09-03 15:04:00,
2015-09-03 08:09:00,55.0,46.6,29.82,East,101,0.9,1.0,73,0.00,,,0.00,meteobridge,2015-09-03 15:09:00,
2015-09-03 08:14:00,55.0,46.6,29.82,East,96,0.9,1.0,73,0.00,,,0.00,meteobridge,2015-09-03 15:14:00,
2015-09-03 08:19:00,55.2,46.8,29.82,East,91,0.0,2.0,73,0.00,,,0.00,meteobridge,2015-09-03 15:19:00,
2015-09-03 08:24:00,55.6,47.1,29.82,East,91,0.0,1.0,73,0.00,,,0.00,meteobridge,2015-09-03 15:24:00,
2015-09-03 08:29:00,55.8,47.3,29.82,East,93,0.0,1.0,73,0.00,,,0.00,meteobridge,2015-09-03 15:29:00,
2015-09-03 08:34:00,55.9,47.1,29.82,East,90,0.0,1.0,72,0.00,,,0.00,meteobridge,2015-09-03 15:34:00,
2015-09-03 08:39:00,56.1,47.3,29.82,East,98,0.0,0.0,72,0.00,,,0.00,meteobridge,2015-09-03 15:39:00,
2015-09-03 08:44:00,56.5,47.1,29.82,East,97,0.0,0.0,71,0.00,,,0.00,meteobridge,2015-09-03 15:44:00,
2015-09-03 08:49:00,56.7,46.9,29.82,ESE,114,0.0,1.0,70,0.00,,,0.00,meteobridge,2015-09-03 15:49:00,
2015-09-03 08:54:00,57.0,47.3,29.82,NE,48,0.0,1.0,70,0.00,,,0.00,meteobridge,2015-09-03 15:54:00,
2015-09-03 09:00:00,57.4,47.3,29.82,East,94,0.0,1.0,69,0.00,,,0.00,meteobridge,2015-09-03 16:00:00,
2015-09-03 09:05:00,57.7,47.7,29.82,East,94,0.0,1.0,69,0.00,,,0.00,meteobridge,2015-09-03 16:05:00,
2015-09-03 09:10:00,58.1,47.7,29.82,ESE,103,0.0,1.0,68,0.00,,,0.00,meteobridge,2015-09-03 16:10:00,
2015-09-03 09:15:00,58.3,47.8,29.82,South,188,0.0,1.0,68,0.00,,,0.00,meteobridge,2015-09-03 16:15:00,
2015-09-03 09:20:00,58.6,47.7,29.82,WSW,238,0.0,1.0,67,0.00,,,0.00,meteobridge,2015-09-03 16:20:00,
2015-09-03 09:25:00,59.2,47.8,29.82,ENE,78,0.0,2.0,66,0.00,,,0.00,meteobridge,2015-09-03 16:25:00,
2015-09-03 09:31:00,59.7,48.4,29.82,NE,52,0.9,1.0,66,0.00,,,0.00,meteobridge,2015-09-03 16:31:00,
2015-09-03 09:36:00,60.3,48.4,29.82,SSE,160,0.0,0.0,65,0.00,,,0.00,meteobridge,2015-09-03 16:36:00,
2015-09-03 09:41:00,60.6,48.4,29.82,East,91,0.0,1.0,64,0.00,,,0.00,meteobridge,2015-09-03 16:41:00,
2015-09-03 09:46:00,61.2,48.9,29.82,NNE,17,0.9,1.0,64,0.00,,,0.00,meteobridge,2015-09-03 16:46:00,
2015-09-03 09:51:00,61.5,48.4,29.82,ENE,59,0.9,1.0,62,0.00,,,0.00,meteobridge,2015-09-03 16:51:00,
2015-09-03 09:58:00,62.2,48.6,29.82,NNE,21,2.0,2.0,61,0.00,,,0.00,meteobridge,2015-09-03 16:58:00,
2015-09-03 10:03:00,62.8,48.7,29.82,SW,233,0.0,3.0,60,0.00,,,0.00,meteobridge,2015-09-03 17:03:00,
2015-09-03 10:08:00,63.1,49.1,29.82,NNW,347,0.0,2.0,60,0.00,,,0.00,meteobridge,2015-09-03 17:08:00,
2015-09-03 10:13:00,63.7,49.1,29.82,NNE,28,0.0,4.0,59,0.00,,,0.00,meteobridge,2015-09-03 17:13:00,
2015-09-03 10:18:00,64.0,48.6,29.82,East,93,0.9,2.0,57,0.00,,,0.00,meteobridge,2015-09-03 17:18:00,
2015-09-03 10:23:00,64.4,48.9,29.82,South,174,0.9,1.0,57,0.00,,,0.00,meteobridge,2015-09-03 17:23:00,
2015-09-03 10:29:00,64.9,49.3,29.82,South,172,0.9,1.0,57,0.00,,,0.00,meteobridge,2015-09-03 17:29:00,
2015-09-03 10:34:00,65.7,50.0,29.82,SW,220,0.0,1.0,57,0.00,,,0.00,meteobridge,2015-09-03 17:34:00,
2015-09-03 10:39:00,66.7,50.5,29.82,North,355,2.0,3.0,56,0.00,,,0.00,meteobridge,2015-09-03 17:39:00,
2015-09-03 10:44:00,67.5,49.8,29.82,ENE,76,0.9,5.0,53,0.00,,,0.00,meteobridge,2015-09-03 17:44:00,
2015-09-03 10:49:00,68.2,50.4,29.82,South,185,0.0,1.0,53,0.00,,,0.00,meteobridge,2015-09-03 17:49:00,
2015-09-03 10:55:00,68.7,49.8,29.82,WSW,243,0.0,3.0,51,0.00,,,0.00,meteobridge,2015-09-03 17:55:00,
2015-09-03 11:00:00,70.0,50.5,29.82,NNE,26,0.0,1.0,50,0.00,,,0.00,meteobridge,2015-09-03 18:00:00,
2015-09-03 11:05:00,70.7,50.5,29.82,WSW,240,0.0,1.0,49,0.00,,,0.00,meteobridge,2015-09-03 18:05:00,
2015-09-03 11:10:00,71.8,51.1,29.82,North,10,0.0,3.0,48,0.00,,,0.00,meteobridge,2015-09-03 18:10:00,
2015-09-03 11:15:00,72.0,50.7,29.82,ENE,68,2.9,4.0,47,0.00,,,0.00,meteobridge,2015-09-03 18:15:00,
2015-09-03 11:20:00,72.0,51.3,29.82,SE,145,0.0,2.0,48,0.00,,,0.00,meteobridge,2015-09-03 18:20:00,
2015-09-03 11:26:00,72.0,50.0,29.82,NNE,15,0.0,3.0,46,0.00,,,0.00,meteobridge,2015-09-03 18:26:00,
2015-09-03 11:31:00,71.8,50.5,29.82,SW,226,0.0,3.0,47,0.00,,,0.00,meteobridge,2015-09-03 18:31:00,
2015-09-03 11:36:00,72.0,50.7,29.82,SW,223,0.9,3.0,47,0.00,,,0.00,meteobridge,2015-09-03 18:36:00,
2015-09-03 11:41:00,72.3,49.8,29.82,North,6,0.9,4.0,45,0.00,,,0.00,meteobridge,2015-09-03 18:41:00,
2015-09-03 11:46:00,72.5,51.1,29.82,NNE,32,0.0,3.0,47,0.00,,,0.00,meteobridge,2015-09-03 18:46:00,
2015-09-03 11:51:00,73.0,50.4,29.82,ENE,75,0.0,5.0,45,0.00,,,0.00,meteobridge,2015-09-03 18:51:00,
2015-09-03 11:56:00,73.0,49.8,29.82,SW,217,0.9,3.0,44,0.00,,,0.00,meteobridge,2015-09-03 18:56:00,
2015-09-03 12:01:00,73.0,49.8,29.81,North,4,2.0,5.0,44,0.00,,,0.00,meteobridge,2015-09-03 19:01:00,
2015-09-03 12:06:00,73.0,50.4,29.81,NNW,347,0.0,3.0,45,0.00,,,0.00,meteobridge,2015-09-03 19:06:00,
2015-09-03 12:11:00,73.6,51.4,29.82,ENE,62,2.9,3.0,46,0.00,,,0.00,meteobridge,2015-09-03 19:11:00,
2015-09-03 12:17:00,73.4,50.2,29.82,SW,227,0.0,2.0,44,0.00,,,0.00,meteobridge,2015-09-03 19:17:00,
2015-09-03 12:22:00,73.8,51.1,29.81,SSE,154,0.9,1.0,45,0.00,,,0.00,meteobridge,2015-09-03 19:22:00,
2015-09-03 12:27:00,73.9,50.7,29.81,NE,39,0.0,3.0,44,0.00,,,0.00,meteobridge,2015-09-03 19:27:00,
2015-09-03 12:32:00,73.9,49.5,29.81,North,359,0.0,5.0,42,0.00,,,0.00,meteobridge,2015-09-03 19:32:00,
2015-09-03 12:37:00,74.1,50.2,29.81,NE,43,0.9,2.0,43,0.00,,,0.00,meteobridge,2015-09-03 19:37:00,
2015-09-03 12:42:00,74.1,49.6,29.81,NE,44,2.9,3.0,42,0.00,,,0.00,meteobridge,2015-09-03 19:42:00,
2015-09-03 12:47:00,73.9,50.7,29.81,NNE,21,2.9,3.0,44,0.00,,,0.00,meteobridge,2015-09-03 19:47:00,
2015-09-03 12:52:00,74.1,49.6,29.81,East,93,0.0,3.0,42,0.00,,,0.00,meteobridge,2015-09-03 19:52:00,
2015-09-03 12:57:00,73.9,50.7,29.81,NNW,344,2.0,2.0,44,0.00,,,0.00,meteobridge,2015-09-03 19:57:00,
2015-09-03 13:02:00,74.1,48.9,29.81,NNW,344,0.9,3.0,41,0.00,,,0.00,meteobridge,2015-09-03 20:02:00,
2015-09-03 13:07:00,73.9,49.5,29.80,NNE,26,0.0,2.0,42,0.00,,,0.00,meteobridge,2015-09-03 20:07:00,
2015-09-03 13:12:00,74.1,50.9,29.80,East,94,2.0,2.0,44,0.00,,,0.00,meteobridge,2015-09-03 20:12:00,
2015-09-03 13:17:00,74.7,49.5,29.80,NNE,27,0.0,1.0,41,0.00,,,0.00,meteobridge,2015-09-03 20:17:00,
2015-09-03 13:23:00,74.8,49.6,29.80,North,352,2.0,3.0,41,0.00,,,0.00,meteobridge,2015-09-03 20:23:00,
2015-09-03 13:28:00,74.7,49.5,29.80,North,3,0.0,2.0,41,0.00,,,0.00,meteobridge,2015-09-03 20:28:00,
2015-09-03 13:33:00,74.8,50.2,29.80,ESE,114,0.9,3.0,42,0.00,,,0.00,meteobridge,2015-09-03 20:33:00,
2015-09-03 13:38:00,74.8,49.6,29.80,NNE,23,0.9,3.0,41,0.00,,,0.00,meteobridge,2015-09-03 20:38:00,
2015-09-03 13:43:00,74.5,49.3,29.80,NW,312,0.0,4.0,41,0.00,,,0.00,meteobridge,2015-09-03 20:43:00,
2015-09-03 13:48:00,73.9,49.5,29.80,NE,53,0.0,4.0,42,0.00,,,0.00,meteobridge,2015-09-03 20:48:00,
2015-09-03 13:53:00,73.6,49.6,29.80,West,271,0.0,2.0,43,0.00,,,0.00,meteobridge,2015-09-03 20:53:00,
2015-09-03 13:58:00,73.8,49.3,29.80,ENE,75,0.0,2.0,42,0.00,,,0.00,meteobridge,2015-09-03 20:58:00,
2015-09-03 14:03:00,73.8,49.3,29.80,NE,49,0.9,4.0,42,0.00,,,0.00,meteobridge,2015-09-03 21:03:00,
2015-09-03 14:08:00,73.2,49.5,29.80,East,91,2.0,4.0,43,0.00,,,0.00,meteobridge,2015-09-03 21:08:00,
2015-09-03 14:13:00,72.7,49.5,29.80,NE,46,2.0,3.0,44,0.00,,,0.00,meteobridge,2015-09-03 21:13:00,
2015-09-03 14:18:00,72.7,49.5,29.80,SSW,198,0.0,1.0,44,0.00,,,0.00,meteobridge,2015-09-03 21:18:00,
2015-09-03 14:28:00,73.9,48.7,29.80,ENE,61,0.9,6.0,41,0.00,,,0.00,meteobridge,2015-09-03 21:28:00,
2015-09-03 14:33:00,73.8,49.3,29.80,North,4,0.0,3.0,42,0.00,,,0.00,meteobridge,2015-09-03 21:33:00,
2015-09-03 14:39:00,73.6,49.1,29.80,NNE,18,0.0,4.0,42,0.00,,,0.00,meteobridge,2015-09-03 21:39:00,
2015-09-03 14:44:00,73.6,49.6,29.80,NW,323,0.0,1.0,43,0.00,,,0.00,meteobridge,2015-09-03 21:44:00,
2015-09-03 14:49:00,73.8,49.3,29.80,NE,49,0.0,3.0,42,0.00,,,0.00,meteobridge,2015-09-03 21:49:00,
2015-09-03 14:54:00,73.9,49.5,29.79,NW,323,0.0,4.0,42,0.00,,,0.00,meteobridge,2015-09-03 21:54:00,
2015-09-03 14:59:00,73.6,48.4,29.80,NE,40,0.0,1.0,41,0.00,,,0.00,meteobridge,2015-09-03 21:59:00,
2015-09-03 15:04:00,73.6,49.6,29.79,North,6,0.0,0.0,43,0.00,,,0.00,meteobridge,2015-09-03 22:04:00,
2015-09-03 15:09:00,73.9,49.5,29.79,East,84,0.0,1.0,42,0.00,,,0.00,meteobridge,2015-09-03 22:09:00,
2015-09-03 15:14:00,74.1,49.6,29.79,NNE,32,0.0,3.0,42,0.00,,,0.00,meteobridge,2015-09-03 22:14:00,
2015-09-03 15:22:00,73.0,48.6,29.78,East,83,0.9,2.0,42,0.00,,,0.00,meteobridge,2015-09-03 22:22:00,
2015-09-03 15:27:00,72.3,48.6,29.79,ENE,72,0.9,3.0,43,0.00,,,0.00,meteobridge,2015-09-03 22:27:00,
2015-09-03 15:32:00,71.8,49.3,29.78,NNE,27,0.9,1.0,45,0.00,,,0.00,meteobridge,2015-09-03 22:32:00,
2015-09-03 15:37:00,71.6,48.6,29.78,NE,37,0.9,2.0,44,0.00,,,0.00,meteobridge,2015-09-03 22:37:00,
2015-09-03 15:42:00,71.2,47.7,29.78,ESE,105,0.9,2.0,43,0.00,,,0.00,meteobridge,2015-09-03 22:42:00,
2015-09-03 15:47:00,70.3,48.0,29.78,NE,55,0.0,1.0,45,0.00,,,0.00,meteobridge,2015-09-03 22:47:00,
2015-09-03 15:52:00,70.2,48.4,29.78,SSW,198,0.9,3.0,46,0.00,,,0.00,meteobridge,2015-09-03 22:52:00,
2015-09-03 15:57:00,70.2,47.8,29.78,East,93,0.9,2.0,45,0.00,,,0.00,meteobridge,2015-09-03 22:57:00,
2015-09-03 16:02:00,70.2,47.3,29.78,SSE,157,0.0,3.0,44,0.00,,,0.00,meteobridge,2015-09-03 23:02:00,
2015-09-03 16:07:00,70.2,47.8,29.78,NNE,23,0.9,1.0,45,0.00,,,0.00,meteobridge,2015-09-03 23:07:00,
2015-09-03 16:12:00,69.6,47.3,29.78,WSW,240,0.0,3.0,45,0.00,,,0.00,meteobridge,2015-09-03 23:12:00,
2015-09-03 16:17:00,69.4,47.8,29.78,East,80,0.9,1.0,46,0.00,,,0.00,meteobridge,2015-09-03 23:17:00,
2015-09-03 16:22:00,69.3,46.9,29.78,East,79,0.9,2.0,45,0.00,,,0.00,meteobridge,2015-09-03 23:22:00,
2015-09-03 16:27:00,69.3,46.9,29.78,NE,38,0.0,1.0,45,0.00,,,0.00,meteobridge,2015-09-03 23:27:00,
2015-09-03 16:32:00,69.3,47.7,29.78,North,10,0.0,2.0,46,0.00,,,0.00,meteobridge,2015-09-03 23:32:00,
2015-09-03 16:38:00,69.1,47.5,29.78,ENE,64,0.0,0.0,46,0.00,,,0.00,meteobridge,2015-09-03 23:38:00,
2015-09-03 16:43:00,69.1,47.5,29.78,ENE,77,0.0,1.0,46,0.00,,,0.00,meteobridge,2015-09-03 23:43:00,
2015-09-03 16:48:00,69.1,46.8,29.78,ENE,67,0.0,2.0,45,0.00,,,0.00,meteobridge,2015-09-03 23:48:00,
2015-09-03 16:53:00,68.9,46.8,29.77,SSW,205,0.0,3.0,45,0.00,,,0.00,meteobridge,2015-09-03 23:53:00,
2015-09-03 16:58:00,68.7,46.6,29.77,SE,131,0.0,1.0,45,0.00,,,0.00,meteobridge,2015-09-03 23:58:00,
2015-09-03 17:03:00,68.5,46.9,29.77,ESE,115,0.0,1.0,46,0.00,,,0.00,meteobridge,2015-09-04 00:03:00,
2015-09-03 17:08:00,68.4,46.8,29.77,East,87,0.0,1.0,46,0.00,,,0.00,meteobridge,2015-09-04 00:08:00,
2015-09-03 17:13:00,68.2,46.6,29.77,SW,222,0.0,1.0,46,0.00,,,0.00,meteobridge,2015-09-04 00:13:00,
2015-09-03 17:14:00,68.2,46.6,29.77,SW,222,0.0,1.0,46,0.00,,,0.00,meteobridge,2015-09-04 00:14:00,
2015-09-03 17:19:00,67.8,46.2,29.77,SW,222,0.0,1.0,46,0.00,,,0.00,meteobridge,2015-09-04 00:19:00,
2015-09-03 17:24:00,67.8,46.9,29.77,SW,228,0.0,1.0,47,0.00,,,0.00,meteobridge,2015-09-04 00:24:00,
2015-09-03 17:29:00,67.6,47.3,29.77,NW,304,0.9,1.0,48,0.00,,,0.00,meteobridge,2015-09-04 00:29:00,
2015-09-03 17:34:00,67.6,46.8,29.77,North,352,0.0,1.0,47,0.00,,,0.00,meteobridge,2015-09-04 00:34:00,
2015-09-03 17:39:00,67.5,47.1,29.77,North,352,0.0,0.0,48,0.00,,,0.00,meteobridge,2015-09-04 00:39:00,
2015-09-03 17:45:00,67.5,46.6,29.77,East,86,0.0,1.0,47,0.00,,,0.00,meteobridge,2015-09-04 00:45:00,
2015-09-03 17:50:00,67.3,46.4,29.77,East,86,0.0,1.0,47,0.00,,,0.00,meteobridge,2015-09-04 00:50:00,
2015-09-03 17:55:00,67.3,46.4,29.77,East,86,0.0,0.0,47,0.00,,,0.00,meteobridge,2015-09-04 00:55:00,
2015-09-03 18:00:00,67.1,46.8,29.77,East,86,0.0,1.0,48,0.00,,,0.00,meteobridge,2015-09-04 01:00:00,
2015-09-03 18:06:00,66.9,46.6,29.77,East,86,0.9,1.0,48,0.00,,,0.00,meteobridge,2015-09-04 01:06:00,
2015-09-03 18:11:00,66.7,46.9,29.77,NE,39,0.0,0.0,49,0.00,,,0.00,meteobridge,2015-09-04 01:11:00,
2015-09-03 18:16:00,66.6,46.8,29.77,NE,37,0.0,0.0,49,0.00,,,0.00,meteobridge,2015-09-04 01:16:00,
2015-09-03 18:21:00,66.4,46.6,29.77,NE,37,0.0,0.0,49,0.00,,,0.00,meteobridge,2015-09-04 01:21:00,
2015-09-03 18:27:00,66.4,46.6,29.77,NE,37,0.9,1.0,49,0.00,,,0.00,meteobridge,2015-09-04 01:27:00,
2015-09-03 18:32:00,66.0,46.4,29.77,NE,37,0.0,0.0,49,0.00,,,0.00,meteobridge,2015-09-04 01:32:00,
2015-09-03 18:37:00,65.8,46.8,29.77,NE,37,0.0,0.0,50,0.00,,,0.00,meteobridge,2015-09-04 01:37:00,
2015-09-03 18:43:00,65.7,47.1,29.77,NE,37,0.0,0.0,51,0.00,,,0.00,meteobridge,2015-09-04 01:43:00,
2015-09-03 18:48:00,65.5,46.9,29.77,NE,37,0.0,0.0,51,0.00,,,0.00,meteobridge,2015-09-04 01:48:00,